Terug naar catalogus

STARLINK-6160

ActiefCommunicatieVLEO
NORAD 56382·PAYLOAD·🇺🇸 United States

Gelanceerd May 4, 2023 vanaf Cape Canaveral Space Force Station

Loading…

Volgende Passages (komende 24 uur)

TLE

VersSource: CelesTrak SupGP

Epoch: Sep 14, 2026, 21:06 UTC

1 56382C 23061J   26257.87965278  .00015412  00000+0  55866-3 0  2572
2 56382  42.9995 209.6861 0001003 250.5666  16.0717 15.27545993    13

Volg STARLINK-6160 in realtime met AllMySat

Download on the App Store